DMC3-FM3

Last updated on Wed Sep 17 2025 00:02:37 GMT+0000 (Coordinated Universal Time)

1 40717U 15032C 25259.64136355 .00000617 00000+0 78035-4 0 9996 2 40717 97.6928 132.9235 0004125 230.7255 129.3595 14.85213966549303
UTC large
Height (km)
Speed (km/s)
/
Latitude / Longitude
Inclination (degrees)
Orbital Period (minutes)
Azimuth
Elevation
Range (km)
Doppler Factor

Next 0 passes for location: London (51.5072 / 0.1276)

Sorry there are no passes over London.